GSAT0210 (GALILEO 13)

Last updated on Sat Mar 14 2026 00:02:41 GMT+0000 (Coordinated Universal Time)

1 41550U 16030B 26070.68077775 .00000037 00000+0 00000+0 0 9995 2 41550 55.1262 224.3718 0001380 200.1148 159.8391 1.70474000 61009
UTC large
Height (km)
Speed (km/s)
/
Latitude / Longitude
Inclination (degrees)
Orbital Period (minutes)
Azimuth
Elevation
Range (km)
Doppler Factor

Next 0 passes for location: London (51.5072 / 0.1276)

Sorry there are no passes over London.